Location: Northcutt
(34.7304°N, 84.4305°W)
Time: 21:27:23
(UTC+00:00)

A-11 Canister half - Pass Details

Date: 07 October 2022
Orbit: 1524 x 1685 km, 47.3° (Epoch: 05 December)

Event Time Altitude Azimuth Distance (km) Brightness Sun altitude
Rises 00:15:59 0° 300° (WNW) 4,685 12.7 -13.4°
Reaches altitude 10° 00:19:12 10° 306° (NW) 3,713 11.9 -14.1°
Maximum altitude 00:28:13 48° 20° (NNE) 1,961 9.4 -15.9°
Enters shadow 00:34:24 22° 83° (E) 2,954 9.9 -17.2°
